Location: Mexico
(19.4000°N, 99.1500°W)
Time: 17:08:54
(UTC-06:00)

ISS - Pass Details

Date: 16 April 2018
Orbit: 402 x 407 km, 51.6° (Epoch: 27 April)

Event Time Altitude Azimuth Distance (km) Brightness Sun altitude
Rises 19:45:58 0° 310° (NW) 2,319 1.3 -12.6°
Reaches altitude 10° 19:48:09 10° 301° (WNW) 1,459 0.3 -13.1°
Maximum altitude 19:51:10 35° 234° (SW) 677 -2.4 -13.7°
Enters shadow 19:54:03 11° 167° (SSE) 1,407 -1.4 -14.4°
